TimeCDT,TemperatureF,Dew PointF,Humidity,Sea Level PressureIn,VisibilityMPH,Wind Direction,Wind SpeedMPH,Gust SpeedMPH,PrecipitationIn,Events,Conditions,WindDirDegrees,DateUTC
12:15 AM,71.6,60.8,69,29.72,10.0,South,17.3,-,N/A,,Clear,180,2012-10-25 05:15:00
12:35 AM,71.6,60.8,69,29.71,10.0,South,15.0,23.0,N/A,,Clear,190,2012-10-25 05:35:00
12:55 AM,71.6,60.8,69,29.71,10.0,South,15.0,21.9,N/A,,Clear,190,2012-10-25 05:55:00
1:15 AM,71.6,60.8,69,29.71,10.0,South,17.3,25.3,N/A,,Clear,190,2012-10-25 06:15:00
1:35 AM,69.8,60.8,73,29.70,10.0,South,20.7,24.2,N/A,,Clear,190,2012-10-25 06:35:00
1:55 AM,69.8,60.8,73,29.69,10.0,South,19.6,23.0,N/A,,Clear,190,2012-10-25 06:55:00
2:35 AM,69.8,60.8,73,29.69,10.0,South,21.9,-,N/A,,Mostly Cloudy,190,2012-10-25 07:35:00
2:55 AM,71.6,60.8,69,29.71,10.0,SSW,17.3,-,N/A,,Overcast,200,2012-10-25 07:55:00
3:15 AM,71.6,60.8,69,29.70,10.0,SSW,17.3,27.6,N/A,,Mostly Cloudy,200,2012-10-25 08:15:00
3:35 AM,69.8,60.8,73,29.68,10.0,South,20.7,25.3,N/A,,Scattered Clouds,190,2012-10-25 08:35:00
3:55 AM,69.8,60.8,73,29.67,10.0,South,19.6,23.0,N/A,,Clear,180,2012-10-25 08:55:00
4:15 AM,69.8,59.0,68,29.67,10.0,South,17.3,23.0,N/A,,Clear,180,2012-10-25 09:15:00
4:35 AM,69.8,59.0,68,29.67,10.0,South,17.3,25.3,N/A,,Clear,180,2012-10-25 09:35:00
4:55 AM,69.8,59.0,68,29.67,10.0,South,15.0,23.0,N/A,,Clear,180,2012-10-25 09:55:00
5:15 AM,68.0,59.0,73,29.66,10.0,South,17.3,21.9,N/A,,Clear,180,2012-10-25 10:15:00
5:35 AM,68.0,59.0,73,29.66,10.0,South,16.1,21.9,N/A,,Clear,180,2012-10-25 10:35:00
5:55 AM,69.8,59.0,68,29.66,10.0,South,17.3,25.3,N/A,,Mostly Cloudy,190,2012-10-25 10:55:00
6:35 AM,68.0,59.0,73,29.66,10.0,South,19.6,29.9,N/A,,Scattered Clouds,190,2012-10-25 11:35:00
6:55 AM,69.8,60.8,73,29.66,10.0,South,18.4,24.2,N/A,,Mostly Cloudy,190,2012-10-25 11:55:00
7:15 AM,69.8,59.0,68,29.65,10.0,South,19.6,25.3,N/A,,Overcast,190,2012-10-25 12:15:00
7:35 AM,68.0,59.0,73,29.65,10.0,South,20.7,27.6,N/A,,Overcast,190,2012-10-25 12:35:00
7:55 AM,69.8,59.0,68,29.65,10.0,South,21.9,28.8,N/A,,Mostly Cloudy,190,2012-10-25 12:55:00
8:55 AM,69.8,60.8,73,29.65,10.0,South,18.4,26.5,N/A,,Mostly Cloudy,190,2012-10-25 13:55:00
9:15 AM,69.8,60.8,73,29.65,10.0,SSW,24.2,27.6,N/A,,Mostly Cloudy,200,2012-10-25 14:15:00
9:55 AM,71.6,60.8,69,29.64,10.0,SSW,19.6,33.4,N/A,,Overcast,200,2012-10-25 14:55:00
10:15 AM,71.6,60.8,69,29.63,10.0,SSW,20.7,24.2,N/A,,Overcast,200,2012-10-25 15:15:00
11:15 AM,53.6,50.0,88,29.71,7.0,WNW,20.7,26.5,N/A,,Overcast,290,2012-10-25 16:15:00
11:35 AM,51.8,48.2,88,29.72,10.0,West,23.0,28.8,N/A,,Overcast,280,2012-10-25 16:35:00
11:55 AM,50.0,46.4,87,29.74,5.0,WNW,21.9,29.9,N/A,,Overcast,290,2012-10-25 16:55:00
12:15 PM,48.2,46.4,93,29.76,3.0,WNW,19.6,28.8,N/A,,Drizzle,290,2012-10-25 17:15:00
12:35 PM,46.4,44.6,93,29.77,4.0,WNW,20.7,27.6,0.01,,Drizzle,290,2012-10-25 17:35:00
12:55 PM,46.4,44.6,93,29.78,4.0,WNW,21.9,28.8,0.02,Rain,Light Rain,300,2012-10-25 17:55:00
1:15 PM,46.4,44.6,93,29.79,7.0,WNW,23.0,27.6,0.02,Rain,Rain,290,2012-10-25 18:15:00
1:55 PM,44.6,42.8,93,29.81,10.0,WNW,18.4,28.8,0.04,Rain,Rain,300,2012-10-25 18:55:00
2:15 PM,44.6,42.8,93,29.83,5.0,WNW,17.3,-,0.02,Rain,Light Rain,300,2012-10-25 19:15:00
2:35 PM,44.6,41.0,87,29.85,7.0,WNW,19.6,31.1,0.05,Rain,Rain,300,2012-10-25 19:35:00
2:55 PM,42.8,39.2,87,29.86,10.0,WNW,26.5,31.1,0.07,Rain,Light Rain,290,2012-10-25 19:55:00
3:15 PM,42.8,39.2,87,29.88,10.0,WNW,19.6,29.9,N/A,Rain,Light Rain,300,2012-10-25 20:15:00
3:35 PM,42.8,37.4,81,29.90,10.0,NW,28.8,33.4,N/A,,Overcast,310,2012-10-25 20:35:00
3:55 PM,42.8,37.4,81,29.93,10.0,NW,18.4,27.6,N/A,,Overcast,310,2012-10-25 20:55:00
4:35 PM,42.8,37.4,81,29.96,10.0,NW,17.3,26.5,N/A,,Overcast,310,2012-10-25 21:35:00
4:55 PM,42.8,37.4,81,29.97,10.0,NNW,17.3,26.5,N/A,,Overcast,330,2012-10-25 21:55:00
5:15 PM,42.8,37.4,81,29.98,10.0,NW,15.0,25.3,N/A,,Overcast,320,2012-10-25 22:15:00
5:35 PM,42.8,37.4,81,29.99,10.0,NW,16.1,25.3,N/A,,Overcast,310,2012-10-25 22:35:00
5:55 PM,42.8,37.4,81,30.01,10.0,NW,20.7,24.2,N/A,,Overcast,320,2012-10-25 22:55:00
6:15 PM,42.8,35.6,76,30.03,10.0,NW,21.9,33.4,N/A,,Overcast,310,2012-10-25 23:15:00
6:35 PM,42.8,35.6,76,30.04,10.0,NW,19.6,33.4,N/A,,Overcast,310,2012-10-25 23:35:00
6:55 PM,41.0,35.6,81,30.06,10.0,NW,26.5,32.2,N/A,,Overcast,310,2012-10-25 23:55:00
7:15 PM,41.0,33.8,76,30.08,10.0,NW,21.9,28.8,N/A,,Overcast,310,2012-10-26 00:15:00
7:35 PM,41.0,33.8,76,30.09,10.0,NW,20.7,27.6,N/A,,Overcast,310,2012-10-26 00:35:00
7:55 PM,39.2,33.8,81,30.09,10.0,NW,21.9,32.2,N/A,,Overcast,320,2012-10-26 00:55:00
8:15 PM,39.2,33.8,81,30.11,10.0,NW,23.0,31.1,N/A,,Overcast,320,2012-10-26 01:15:00
8:35 PM,39.2,32.0,75,30.13,10.0,NW,19.6,33.4,N/A,,Overcast,320,2012-10-26 01:35:00
8:55 PM,39.2,30.2,70,30.15,10.0,NW,15.0,20.7,N/A,,Overcast,320,2012-10-26 01:55:00
9:15 PM,39.2,30.2,70,30.16,10.0,NW,23.0,29.9,N/A,,Overcast,320,2012-10-26 02:15:00
9:35 PM,37.4,28.4,70,30.17,10.0,NW,20.7,27.6,N/A,,Scattered Clouds,320,2012-10-26 02:35:00
9:55 PM,37.4,28.4,70,30.19,10.0,NW,16.1,27.6,N/A,,Scattered Clouds,320,2012-10-26 02:55:00
10:15 PM,39.2,30.2,70,30.19,10.0,NW,16.1,24.2,N/A,,Mostly Cloudy,320,2012-10-26 03:15:00
10:35 PM,39.2,30.2,70,30.19,10.0,NW,20.7,27.6,N/A,,Overcast,310,2012-10-26 03:35:00
10:55 PM,39.2,28.4,65,30.20,10.0,NW,20.7,31.1,N/A,,Overcast,320,2012-10-26 03:55:00
11:15 PM,39.2,28.4,65,30.21,10.0,NW,21.9,28.8,N/A,,Overcast,320,2012-10-26 04:15:00
11:55 PM,37.4,28.4,70,30.23,10.0,NW,18.4,27.6,N/A,,Overcast,310,2012-10-26 04:55:00